MPEC 2005-F14 : 2005 FC
The following Minor Planet Electronic Circular may be linked-to from your own Web pages, but must not otherwise be redistributed electronically.A form allowing access to any MPEC is at the bottom of this page.


M.P.E.C. 2005-F14 Issued 2005 Mar. 17, 12:05 UT The Minor Planet Electronic Circulars contain information on unusual minor planets and routine data on comets. They are published on behalf of Commission 20 of the International Astronomical Union by the Minor Planet Center, Smithsonian Astrophysical Observatory, Cambridge, MA 02138, U.S.A. Supported in part by the Brinson Foundation Prepared using the Tamkin Foundation Computer Network MPC@CFA.HARVARD.EDU URL http://cfa-www.harvard.edu/iau/mpc.html ISSN 1523-6714 2005 FC Observations: K05F00C* C2005 03 16.32668 11 49 15.05 +21 21 15.1 18.6 R EF014703 K05F00C C2005 03 16.33606 11 49 06.84 +21 20 54.6 18.9 R EF014703 K05F00C C2005 03 16.34546 11 48 58.52 +21 20 32.8 19.3 R EF014703 K05F00C C2005 03 16.35507 11 48 49.96 +21 20 10.1 19.7 R EF014703 K05F00C C2005 03 16.94285 11 40 25.40 +20 55 48.1 19.5 R EF014143 K05F00C C2005 03 16.94933 11 40 19.30 +20 55 32.4 19.8 R EF014143 K05F00C C2005 03 17.22810 11 36 08.29 +20 43 19.8 19.9 R EF014854 K05F00C C2005 03 17.23326 11 36 03.66 +20 43 04.2 19.8 R EF014854 K05F00C C2005 03 17.23776 11 35 58.99 +20 42 53.4 19.9 R EF014854 K05F00C C2005 03 17.24405 11 35 52.83 +20 42 36.1 18.5 R EF014G96 K05F00C C2005 03 17.24847 11 35 48.51 +20 42 23.9 18.8 R EF014G96 K05F00C C2005 03 17.25291 11 35 44.17 +20 42 11.9 18.8 R EF014G96 K05F00C C2005 03 17.25726 11 35 39.91 +20 41 59.8 19.3 R EF014G96 K05F00C 2C2005 03 17.34710 11 34 10.47 +20 37 39.7 18.8 R EF014H06 K05F00C 2C2005 03 17.35429 11 34 03.41 +20 37 18.4 19.3 R EF014H06 Observer details: 143 Gnosca. Observer S. Sposetti. 0.40-m f/4 reflector + CCD. 703 Catalina Sky Survey. Observer R. Hill. Measurers E. C. Beshore, C. M. Casey, E. J. Christensen, G. J. Garradd, R. E. Hill, S. M. Larson, R. H. McNaught. 0.68-m Schmidt + CCD. 854 Sabino Canyon Observatory, Tucson. Observer J. E. McGaha. 0.36-m f/10.0 Schmidt-Cassegrain + CCD. G96 Mt. Lemmon Survey. Observer E. C. Beshore. Measurers E. C. Beshore, C. M. Casey, E. J. Christensen, G. J. Garradd, R. E. Hill, S. M. Larson, R. H. McNaught. 1.5-m reflector + CCD. H06 New Mexico Skies Observatory. Observer R. Hutsebaut. 0.30-m reflector + CCD. Orbital elements: 2005 FC Epoch 2005 Mar. 11.0 TT = JDT 2453440.5 MPC M 243.21900 (2000.0) P Q n 1.12018660 Peri. 310.86832 +0.65793192 +0.75307662 a 0.9182109 Node 0.28108 -0.60668079 +0.53088836 e 0.2712503 Incl. 12.83785 -0.44616589 +0.38862984 P 0.88 H 24.7 G 0.15 From 14 observations 2005 Mar. 16-17. Ephemeris: 2005 FC a,e,i = 0.92, 0.27, 13 q = 0.6691 Date TT R. A. (2000) Decl. Delta r Elong. Phase V 2005 03 11 12 43.72 +23 02.4 0.0902 1.075 152.9 24.9 20.8 2005 03 12 12 35.97 +22 54.0 0.0852 1.071 154.6 23.5 20.6 2005 03 13 12 27.24 +22 42.0 0.0803 1.068 156.2 22.0 20.4 2005 03 14 12 17.39 +22 25.4 0.0756 1.065 157.8 20.7 20.3 2005 03 15 12 06.27 +22 03.0 0.0710 1.061 159.1 19.5 20.1 2005 03 16 11 53.71 +21 33.3 0.0667 1.058 160.1 18.7 19.9 2005 03 17 11 39.55 +20 54.3 0.0625 1.054 160.4 18.4 19.7 2005 03 18 11 23.64 +20 03.8 0.0587 1.051 159.9 19.0 19.6 2005 03 19 11 05.83 +18 59.2 0.0552 1.047 158.1 20.7 19.5 2005 03 20 10 46.07 +17 37.9 0.0520 1.043 155.2 23.6 19.5 2005 03 21 10 24.37 +15 57.5 0.0493 1.040 151.1 27.6 19.5 2005 03 22 10 00.91 +13 56.7 0.0471 1.036 146.0 32.5 19.5 2005 03 23 09 36.04 +11 35.9 0.0455 1.032 140.0 38.3 19.6 2005 03 24 09 10.25 +08 57.9 0.0445 1.028 133.5 44.7 19.7 2005 03 25 08 44.18 +06 08.1 0.0441 1.024 126.5 51.5 19.9 2005 03 26 08 18.49 +03 13.5 0.0445 1.020 119.5 58.3 20.1 2005 03 27 07 53.77 +00 21.7 0.0455 1.016 112.6 65.1 20.3 2005 03 28 07 30.51 -02 21.0 0.0471 1.012 106.0 71.5 20.6 2005 03 29 07 08.98 -04 50.0 0.0492 1.008 99.8 77.4 20.9 2005 03 30 06 49.32 -07 03.2 0.0518 1.004 94.2 82.9 21.2 2005 03 31 06 31.52 -09 00.1 0.0548 1.000 89.1 87.8 21.5 2005 04 01 06 15.51 -10 41.5 0.0581 0.995 84.5 92.2 21.8 2005 04 02 06 01.14 -12 08.8 0.0617 0.991 80.3 96.2 22.1 2005 04 03 05 48.24 -13 23.8 0.0656 0.987 76.6 99.7 22.4 2005 04 04 05 36.64 -14 28.1 0.0696 0.982 73.2 102.9 22.6 2005 04 05 05 26.20 -15 23.3 0.0737 0.978 70.2 105.7 22.9 2005 04 06 05 16.76 -16 10.7 0.0780 0.973 67.4 108.3 23.2 2005 04 07 05 08.20 -16 51.5 0.0825 0.969 64.9 110.7 23.4 2005 04 08 05 00.39 -17 26.7 0.0870 0.964 62.6 112.8 23.7 2005 04 09 04 53.24 -17 57.0 0.0915 0.960 60.5 114.7 23.9 2005 04 10 04 46.66 -18 23.2 0.0962 0.955 58.5 116.5 24.1 Timothy B. Spahr (C) Copyright 2005 MPC M.P.E.C. 2005-F14


Enter an MPEC number in one of the following forms:
- 1997-B01 (the full form)
- J97B01 (the packed version of the full form)
- B01 (the abbreviated form)